Location: Laura�t
(43.9341°N, 0.2497°E)
Time: 00:14:05
(UTC+00:00)

Cosmos 1869 Rocket - Pass Details

Date: 03 March 2021
Orbit: 605 x 633 km, 82.5° (Epoch: 17 April)

Event Time Altitude Azimuth Distance (km) Brightness Sun altitude
Rises 19:49:27 0° 189° (S) 2,856 6.9 -22.2°
Reaches altitude 10° 19:51:39 10° 190° (S) 1,960 6.1 -22.5°
Maximum altitude 19:55:59 83° 278° (W) 625 3.5 -23.3°
Drops below altitude 10° 20:00:25 10° 7° (N) 1,993 6.2 -24.1°
Sets 20:02:40 0° 8° (N) 2,908 7.1 -24.5°
